AAL1779 KMIA-TFFF

Flight info

Callsign AAL1779
Flight time 2h 54m
Altitude 37000
Route KLADA2 BITAC Y290 HAGIT Y421 MEEGL DCT ILURI UA555 DUNTA/N0431F230 A555 EMOLA EMOLA2X
Aircraft A319/M-SDE3FGHIRWY/LB1

Departure

Time 2026-05-08 11:31
Airport Miami International Airport (KMIA)

Arrival

Time 2026-05-08 14:25
Airport Martinique Aimé Césaire International Airport (TFFF)
Time Latitude Longitude Altitude Speed Heading
2026-05-08 11:18 25.79790 -80.27153 21 ft 0 kts 348°
2026-05-08 11:24 25.79787 -80.27152 20 ft 2 kts 348°
2026-05-08 11:24 25.79771 -80.27148 20 ft 2 kts 348°
2026-05-08 11:24 25.79755 -80.27144 24 ft 2 kts
2026-05-08 11:25 25.79740 -80.27149 23 ft 2 kts 57°
2026-05-08 11:25 25.79734 -80.27166 22 ft 2 kts 82°
2026-05-08 11:25 25.79733 -80.27174 20 ft 0 kts 87°
2026-05-08 11:27 25.79734 -80.27156 24 ft 5 kts 87°
2026-05-08 11:27 25.79743 -80.27109 22 ft 7 kts 64°
2026-05-08 11:27 25.79790 -80.27053 22 ft 13 kts 41°
2026-05-08 11:28 25.79868 -80.26993 22 ft 11 kts 21°
2026-05-08 11:28 25.79940 -80.26969 20 ft 8 kts 358°
2026-05-08 11:28 25.79984 -80.27016 22 ft 10 kts 306°
2026-05-08 11:28 25.80032 -80.27063 20 ft 8 kts 350°
2026-05-08 11:29 25.80084 -80.27026 20 ft 10 kts 47°
2026-05-08 11:29 25.80101 -80.27005 22 ft 0 kts 47°
2026-05-08 11:29 25.80107 -80.26998 21 ft 4 kts 47°
2026-05-08 11:29 25.80157 -80.26965 21 ft 11 kts 10°
2026-05-08 11:30 25.80201 -80.26992 21 ft 3 kts 279°
2026-05-08 11:30 25.80194 -80.27152 20 ft 50 kts 268°
2026-05-08 11:30 25.80169 -80.27776 14 ft 111 kts 267°
2026-05-08 11:30 25.80126 -80.28834 22 ft 163 kts 268°
2026-05-08 11:31 25.80057 -80.30120 569 ft 164 kts 264°
2026-05-08 11:31 25.79925 -80.31375 1164 ft 166 kts 265°
2026-05-08 11:31 25.79793 -80.32646 1763 ft 167 kts 266°
2026-05-08 11:31 25.79660 -80.33990 2032 ft 185 kts 266°
2026-05-08 11:32 25.79341 -80.35468 2249 ft 209 kts 253°
2026-05-08 11:32 25.78867 -80.37084 2507 ft 231 kts 253°
2026-05-08 11:32 25.78290 -80.38847 2840 ft 255 kts 242°
2026-05-08 11:32 25.77134 -80.40395 3542 ft 264 kts 226°
2026-05-08 11:33 25.75845 -80.41855 4442 ft 266 kts 226°
2026-05-08 11:33 25.74541 -80.43296 5267 ft 269 kts 220°
2026-05-08 11:33 25.72866 -80.44265 6015 ft 277 kts 195°
2026-05-08 11:33 25.70922 -80.44442 6688 ft 284 kts 180°
2026-05-08 11:34 25.68933 -80.44340 7368 ft 289 kts 170°
2026-05-08 11:34 25.67031 -80.43609 8072 ft 292 kts 150°
2026-05-08 11:34 25.65419 -80.42236 8801 ft 294 kts 132°
2026-05-08 11:34 25.64595 -80.41043 9278 ft 295 kts 121°
2026-05-08 11:35 25.63237 -80.38408 10219 ft 298 kts 119°
2026-05-08 11:35 25.62181 -80.36341 10417 ft 319 kts 119°
2026-05-08 11:35 25.61445 -80.34884 10498 ft 333 kts 117°
2026-05-08 11:35 25.60552 -80.32434 10640 ft 352 kts 105°
2026-05-08 11:36 25.60085 -80.28814 11122 ft 363 kts 90°
2026-05-08 11:36 25.60127 -80.26944 11411 ft 367 kts 88°
2026-05-08 11:36 25.60199 -80.24100 11888 ft 371 kts 89°
2026-05-08 11:36 25.60262 -80.21217 12354 ft 376 kts 89°
2026-05-08 11:37 25.60324 -80.18290 12822 ft 381 kts 89°
2026-05-08 11:37 25.60385 -80.15347 13317 ft 384 kts 89°
2026-05-08 11:37 25.60450 -80.12397 13755 ft 389 kts 89°
2026-05-08 11:37 25.60521 -80.09381 14176 ft 393 kts 89°
2026-05-08 11:38 25.60594 -80.06346 14618 ft 396 kts 88°
2026-05-08 11:38 25.60667 -80.03285 15056 ft 398 kts 88°
2026-05-08 11:38 25.60740 -80.00201 15493 ft 402 kts 88°
2026-05-08 11:38 25.60811 -79.97087 15906 ft 406 kts 88°
2026-05-08 11:39 25.60872 -79.93943 16325 ft 410 kts 89°
2026-05-08 11:39 25.60834 -79.90810 16753 ft 413 kts 91°
2026-05-08 11:39 25.60698 -79.87609 17194 ft 417 kts 92°
2026-05-08 11:39 25.60510 -79.84384 17631 ft 421 kts 93°
2026-05-08 11:40 25.60304 -79.81127 18069 ft 425 kts 93°
2026-05-08 11:40 25.60105 -79.77882 18484 ft 428 kts 92°
2026-05-08 11:40 25.59922 -79.74577 18886 ft 431 kts 92°
2026-05-08 11:40 25.59663 -79.71251 19279 ft 435 kts 98°
2026-05-08 11:41 25.58956 -79.67972 19684 ft 439 kts 108°
2026-05-08 11:41 25.57849 -79.64803 20079 ft 442 kts 112°
2026-05-08 11:41 25.56695 -79.61640 20484 ft 444 kts 112°
2026-05-08 11:41 25.55526 -79.58453 20865 ft 447 kts 112°
2026-05-08 11:42 25.54350 -79.55253 21232 ft 450 kts 112°
2026-05-08 11:42 25.53165 -79.52036 21589 ft 453 kts 112°
2026-05-08 11:42 25.51973 -79.48797 21934 ft 455 kts 112°
2026-05-08 11:42 25.50788 -79.45575 22273 ft 458 kts 112°
2026-05-08 11:43 25.49584 -79.42295 22605 ft 461 kts 112°
2026-05-08 11:43 25.48376 -79.39000 22947 ft 463 kts 112°
2026-05-08 11:43 25.47158 -79.35677 23279 ft 466 kts 112°
2026-05-08 11:43 25.45933 -79.32334 23597 ft 469 kts 112°
2026-05-08 11:44 25.44719 -79.29025 23863 ft 471 kts 112°
2026-05-08 11:44 25.43480 -79.25656 24134 ft 474 kts 112°
2026-05-08 11:44 25.42229 -79.22267 24413 ft 476 kts 112°
2026-05-08 11:44 25.40971 -79.18862 24691 ft 478 kts 112°
2026-05-08 11:45 25.39711 -79.15450 24964 ft 480 kts 112°
2026-05-08 11:45 25.38463 -79.12070 25232 ft 482 kts 112°
2026-05-08 11:45 25.37189 -79.08625 25501 ft 484 kts 112°
2026-05-08 11:45 25.35910 -79.05172 25768 ft 485 kts 112°
2026-05-08 11:46 25.34627 -79.01706 26040 ft 487 kts 112°
2026-05-08 11:46 25.33336 -78.98221 26300 ft 489 kts 112°
2026-05-08 11:46 25.32059 -78.94781 26561 ft 491 kts 112°
2026-05-08 11:46 25.30756 -78.91273 26824 ft 493 kts 112°
2026-05-08 11:47 25.29450 -78.87763 27070 ft 495 kts 112°
2026-05-08 11:47 25.28137 -78.84236 27317 ft 496 kts 112°
2026-05-08 11:47 25.26817 -78.80695 27565 ft 498 kts 112°
2026-05-08 11:47 25.25493 -78.77146 27805 ft 500 kts 112°
2026-05-08 11:48 25.24164 -78.73581 28044 ft 502 kts 112°
2026-05-08 11:48 25.22848 -78.70053 28270 ft 504 kts 112°
2026-05-08 11:48 25.21506 -78.66459 28510 ft 505 kts 112°
2026-05-08 11:48 25.20164 -78.62866 28736 ft 507 kts 112°
2026-05-08 11:49 25.18812 -78.59257 28964 ft 508 kts 112°
2026-05-08 11:49 25.17450 -78.55658 29233 ft 509 kts 113°
2026-05-08 11:49 25.16034 -78.52080 29572 ft 508 kts 114°
2026-05-08 11:49 25.14578 -78.48537 29913 ft 507 kts 115°
2026-05-08 11:50 25.13102 -78.45012 30228 ft 506 kts 115°
2026-05-08 11:50 25.11623 -78.41494 30504 ft 506 kts 115°
2026-05-08 11:50 25.10164 -78.38002 30794 ft 505 kts 115°
2026-05-08 11:50 25.08688 -78.34443 31095 ft 504 kts 115°
2026-05-08 11:51 25.07238 -78.30928 31398 ft 503 kts 115°
2026-05-08 11:51 25.05794 -78.27411 31708 ft 502 kts 115°
2026-05-08 11:51 25.04358 -78.23906 32021 ft 501 kts 115°
2026-05-08 11:51 25.02919 -78.20399 32338 ft 500 kts 115°
2026-05-08 11:52 25.01487 -78.16925 32661 ft 499 kts 115°
2026-05-08 11:52 25.00062 -78.13475 32983 ft 499 kts 115°
2026-05-08 11:52 24.98628 -78.10009 33302 ft 498 kts 115°
2026-05-08 11:52 24.97194 -78.06542 33633 ft 497 kts 115°
2026-05-08 11:53 24.95740 -78.03025 33974 ft 496 kts 115°
2026-05-08 11:53 24.94314 -77.99578 34276 ft 495 kts 115°
2026-05-08 11:53 24.92903 -77.96171 34561 ft 494 kts 115°
2026-05-08 11:53 24.91478 -77.92737 34856 ft 493 kts 115°
2026-05-08 11:54 24.90043 -77.89289 35020 ft 493 kts 115°
2026-05-08 11:54 24.87193 -77.82443 35054 ft 491 kts 115°
2026-05-08 11:55 24.84349 -77.75614 35059 ft 491 kts 115°
2026-05-08 11:55 24.81508 -77.68792 35049 ft 491 kts 115°
2026-05-08 11:56 24.78664 -77.61977 35057 ft 490 kts 115°
2026-05-08 11:56 24.75812 -77.55155 35058 ft 490 kts 114°
2026-05-08 11:57 24.72888 -77.48429 35055 ft 489 kts 116°
2026-05-08 11:57 24.69795 -77.41740 35054 ft 489 kts 117°
2026-05-08 11:58 24.66687 -77.35072 35050 ft 489 kts 117°
2026-05-08 11:58 24.63614 -77.28390 35053 ft 489 kts 116°
2026-05-08 11:59 24.59054 -77.18406 35052 ft 489 kts 116°
2026-05-08 11:59 24.55983 -77.11712 35054 ft 489 kts 116°
2026-05-08 12:00 24.52933 -77.05091 35055 ft 489 kts 116°
2026-05-08 12:00 24.49847 -76.98410 35056 ft 489 kts 116°
2026-05-08 12:01 24.46768 -76.91745 35054 ft 489 kts 116°
2026-05-08 12:01 24.43691 -76.85071 35059 ft 489 kts 116°
2026-05-08 12:02 24.40634 -76.78457 35071 ft 488 kts 116°
2026-05-08 12:02 24.37552 -76.71819 35075 ft 487 kts 116°
2026-05-08 12:03 24.34481 -76.65214 35072 ft 486 kts 116°
2026-05-08 12:03 24.31425 -76.58636 35071 ft 485 kts 116°
2026-05-08 12:04 24.28372 -76.52057 35069 ft 485 kts 116°
2026-05-08 12:04 24.25302 -76.45460 35070 ft 485 kts 116°
2026-05-08 12:05 24.22225 -76.38888 35072 ft 484 kts 116°
2026-05-08 12:05 24.19150 -76.32327 35063 ft 484 kts 116°
2026-05-08 12:06 24.16103 -76.25809 35057 ft 483 kts 116°
2026-05-08 12:06 24.13045 -76.19250 35051 ft 483 kts 116°
2026-05-08 12:07 24.09963 -76.12689 35053 ft 483 kts 116°
2026-05-08 12:07 24.06898 -76.06186 35057 ft 482 kts 116°
2026-05-08 12:08 24.03822 -75.99654 35057 ft 482 kts 116°
2026-05-08 12:08 24.00742 -75.93121 35055 ft 482 kts 116°
2026-05-08 12:09 23.97680 -75.86625 35049 ft 482 kts 116°
2026-05-08 12:09 23.94598 -75.80104 35048 ft 482 kts 116°
2026-05-08 12:10 23.91512 -75.73588 35055 ft 482 kts 116°
2026-05-08 12:10 23.88449 -75.67125 35053 ft 482 kts 116°
2026-05-08 12:11 23.85364 -75.60627 35053 ft 481 kts 116°
2026-05-08 12:11 23.82282 -75.54134 35051 ft 481 kts 117°
2026-05-08 12:12 23.79191 -75.47646 35053 ft 481 kts 117°
2026-05-08 12:12 23.76114 -75.41187 35053 ft 481 kts 117°
2026-05-08 12:13 23.73020 -75.34694 35058 ft 481 kts 117°
2026-05-08 12:13 23.69922 -75.28205 35060 ft 481 kts 117°
2026-05-08 12:14 23.66824 -75.21714 35051 ft 481 kts 117°
2026-05-08 12:14 23.63750 -75.15281 35063 ft 481 kts 117°
2026-05-08 12:15 23.60641 -75.08822 35066 ft 480 kts 117°
2026-05-08 12:15 23.57528 -75.02365 35071 ft 480 kts 117°
2026-05-08 12:16 23.54444 -74.95948 35063 ft 479 kts 117°
2026-05-08 12:16 23.51337 -74.89498 35058 ft 479 kts 117°
2026-05-08 12:17 23.48255 -74.83105 35055 ft 479 kts 117°
2026-05-08 12:17 23.45147 -74.76666 35057 ft 479 kts 117°
2026-05-08 12:18 23.42056 -74.70268 35053 ft 479 kts 117°
2026-05-08 12:18 23.38945 -74.63849 35056 ft 479 kts 117°
2026-05-08 12:19 23.35829 -74.57424 35058 ft 479 kts 117°
2026-05-08 12:19 23.32710 -74.50996 35058 ft 479 kts 117°
2026-05-08 12:20 23.29614 -74.44630 35055 ft 479 kts 117°
2026-05-08 12:20 23.26494 -74.38218 35054 ft 479 kts 117°
2026-05-08 12:21 23.23369 -74.31806 35063 ft 479 kts 117°
2026-05-08 12:21 23.20248 -74.25413 35064 ft 478 kts 117°
2026-05-08 12:22 23.17127 -74.19022 35057 ft 478 kts 117°
2026-05-08 12:22 23.14019 -74.12663 35062 ft 478 kts 117°
2026-05-08 12:23 23.10895 -74.06274 35056 ft 478 kts 117°
2026-05-08 12:23 23.07761 -73.99898 35056 ft 478 kts 117°
2026-05-08 12:24 23.04650 -73.93570 35062 ft 477 kts 117°
2026-05-08 12:24 23.01519 -73.87207 35057 ft 477 kts 117°
2026-05-08 12:25 22.98903 -73.81882 35054 ft 477 kts 117°
2026-05-08 12:25 22.95797 -73.75575 35052 ft 477 kts 117°
2026-05-08 12:26 22.92664 -73.69224 35049 ft 477 kts 117°
2026-05-08 12:26 22.89530 -73.62889 35053 ft 477 kts 117°
2026-05-08 12:27 22.86384 -73.56537 35057 ft 476 kts 117°
2026-05-08 12:27 22.83248 -73.50209 35062 ft 476 kts 117°
2026-05-08 12:28 22.80129 -73.43922 35054 ft 476 kts 117°
2026-05-08 12:28 22.76991 -73.37601 35054 ft 475 kts 117°
2026-05-08 12:29 22.73854 -73.31289 35061 ft 475 kts 117°
2026-05-08 12:29 22.70728 -73.25008 35060 ft 476 kts 117°
2026-05-08 12:30 22.67581 -73.18705 35062 ft 476 kts 117°
2026-05-08 12:30 22.64432 -73.12387 35064 ft 476 kts 117°
2026-05-08 12:31 22.61282 -73.06076 35060 ft 475 kts 117°
2026-05-08 12:31 22.58148 -72.99815 35064 ft 475 kts 117°
2026-05-08 12:32 22.54995 -72.93518 35064 ft 476 kts 117°
2026-05-08 12:32 22.51834 -72.87214 35068 ft 476 kts 117°
2026-05-08 12:33 22.48685 -72.80946 35065 ft 476 kts 117°
2026-05-08 12:33 22.45525 -72.74661 35081 ft 475 kts 117°
2026-05-08 12:34 22.42367 -72.68389 35080 ft 475 kts 117°
2026-05-08 12:34 22.39213 -72.62146 35073 ft 474 kts 117°
2026-05-08 12:35 22.36046 -72.55876 35076 ft 474 kts 117°
2026-05-08 12:35 22.32881 -72.49625 35072 ft 474 kts 117°
2026-05-08 12:36 22.29718 -72.43365 35067 ft 474 kts 117°
2026-05-08 12:36 22.26578 -72.37147 35069 ft 473 kts 117°
2026-05-08 12:37 22.23410 -72.30901 35066 ft 473 kts 117°
2026-05-08 12:37 22.20261 -72.24701 35065 ft 473 kts 117°
2026-05-08 12:38 22.17093 -72.18476 35065 ft 473 kts 117°
2026-05-08 12:38 22.13919 -72.12249 35065 ft 473 kts 117°
2026-05-08 12:39 22.10758 -72.06052 35056 ft 473 kts 117°
2026-05-08 12:39 22.07587 -71.99819 35057 ft 473 kts 117°
2026-05-08 12:40 22.04419 -71.93601 35056 ft 473 kts 117°
2026-05-08 12:40 22.01233 -71.87377 35066 ft 473 kts 117°
2026-05-08 12:41 21.98069 -71.81199 35070 ft 473 kts 117°
2026-05-08 12:41 21.94874 -71.74971 35065 ft 473 kts 117°
2026-05-08 12:42 21.91705 -71.68800 35060 ft 474 kts 117°
2026-05-08 12:42 21.88512 -71.62581 35064 ft 474 kts 117°
2026-05-08 12:43 21.85321 -71.56370 35073 ft 473 kts 117°
2026-05-08 12:43 21.82124 -71.50156 35069 ft 474 kts 117°
2026-05-08 12:44 21.78940 -71.43983 35060 ft 473 kts 117°
2026-05-08 12:44 21.75749 -71.37811 35055 ft 473 kts 117°
2026-05-08 12:45 21.72539 -71.31610 35058 ft 474 kts 117°
2026-05-08 12:45 21.69330 -71.25407 35058 ft 474 kts 117°
2026-05-08 12:46 21.66124 -71.19208 35058 ft 474 kts 117°
2026-05-08 12:46 21.62930 -71.13043 35060 ft 474 kts 117°
2026-05-08 12:47 21.59710 -71.06845 35058 ft 474 kts 117°
2026-05-08 12:47 21.56058 -71.00983 35058 ft 477 kts 129°
2026-05-08 12:48 21.51699 -70.95596 35062 ft 477 kts 129°
2026-05-08 12:48 21.47338 -70.90196 35062 ft 477 kts 129°
2026-05-08 12:49 21.43010 -70.84832 35063 ft 477 kts 129°
2026-05-08 12:49 21.38652 -70.79439 35061 ft 478 kts 129°
2026-05-08 12:50 21.34306 -70.74069 35059 ft 478 kts 129°
2026-05-08 12:50 21.29942 -70.68681 35055 ft 478 kts 129°
2026-05-08 12:51 21.23380 -70.60601 35060 ft 478 kts 129°
2026-05-08 12:52 21.19000 -70.55206 35061 ft 478 kts 129°
2026-05-08 12:52 21.12463 -70.47164 35064 ft 478 kts 129°
2026-05-08 12:53 21.08077 -70.41773 35067 ft 478 kts 129°
2026-05-08 12:53 21.03701 -70.36403 35067 ft 478 kts 129°
2026-05-08 12:54 20.99339 -70.31064 35066 ft 478 kts 129°
2026-05-08 12:54 20.94948 -70.25686 35067 ft 478 kts 129°
2026-05-08 12:55 20.90587 -70.20343 35067 ft 478 kts 129°
2026-05-08 12:55 20.86195 -70.14973 35071 ft 478 kts 129°
2026-05-08 12:56 20.81813 -70.09624 35067 ft 478 kts 129°
2026-05-08 12:56 20.77441 -70.04299 35069 ft 478 kts 129°
2026-05-08 12:57 20.73051 -69.98941 35070 ft 478 kts 129°
2026-05-08 12:57 20.68679 -69.93621 35173 ft 479 kts 129°
2026-05-08 12:58 20.66483 -69.90952 35435 ft 478 kts 129°
2026-05-08 12:58 20.64283 -69.88279 35718 ft 477 kts 129°
2026-05-08 12:58 20.62088 -69.85612 36008 ft 476 kts 129°
2026-05-08 12:58 20.59905 -69.82960 36296 ft 475 kts 129°
2026-05-08 12:59 20.57723 -69.80312 36582 ft 474 kts 129°
2026-05-08 12:59 20.55571 -69.77699 36855 ft 473 kts 129°
2026-05-08 12:59 20.53397 -69.75061 37048 ft 472 kts 129°
2026-05-08 12:59 20.51228 -69.72430 37076 ft 471 kts 129°
2026-05-08 13:00 20.46897 -69.67179 37079 ft 471 kts 129°
2026-05-08 13:00 20.42593 -69.61964 37076 ft 471 kts 129°
2026-05-08 13:01 20.38252 -69.56723 37076 ft 471 kts 129°
2026-05-08 13:01 20.33910 -69.51474 37078 ft 470 kts 128°
2026-05-08 13:02 20.29584 -69.46238 37078 ft 471 kts 128°
2026-05-08 13:02 20.25271 -69.41042 37089 ft 471 kts 129°
2026-05-08 13:03 20.20920 -69.35804 37086 ft 471 kts 129°
2026-05-08 13:03 20.16576 -69.30571 37078 ft 471 kts 129°
2026-05-08 13:04 20.12267 -69.25386 37076 ft 471 kts 129°
2026-05-08 13:04 20.07910 -69.20147 37077 ft 471 kts 129°
2026-05-08 13:05 20.03562 -69.14928 37083 ft 471 kts 128°
2026-05-08 13:05 19.99206 -69.09703 37081 ft 471 kts 128°
2026-05-08 13:06 19.94873 -69.04516 37087 ft 471 kts 129°
2026-05-08 13:06 19.90521 -68.99307 37083 ft 471 kts 129°
2026-05-08 13:07 19.86166 -68.94094 37082 ft 471 kts 128°
2026-05-08 13:07 19.81972 -68.88755 37083 ft 470 kts 126°
2026-05-08 13:08 19.78601 -68.84237 37089 ft 469 kts 125°
2026-05-08 13:08 19.74540 -68.78815 37090 ft 469 kts 125°
2026-05-08 13:09 19.70423 -68.73433 37086 ft 469 kts 126°
2026-05-08 13:09 19.66286 -68.68075 37081 ft 469 kts 126°
2026-05-08 13:10 19.62153 -68.62704 37077 ft 469 kts 126°
2026-05-08 13:10 19.58030 -68.57329 37077 ft 469 kts 126°
2026-05-08 13:11 19.53913 -68.51984 37086 ft 469 kts 126°
2026-05-08 13:11 19.49771 -68.46617 37091 ft 469 kts 126°
2026-05-08 13:12 19.45637 -68.41245 37083 ft 470 kts 126°
2026-05-08 13:12 19.41527 -68.35913 37082 ft 470 kts 126°
2026-05-08 13:13 19.37390 -68.30560 37084 ft 469 kts 126°
2026-05-08 13:13 19.33243 -68.25207 37088 ft 469 kts 126°
2026-05-08 13:14 19.29086 -68.19849 37078 ft 469 kts 126°
2026-05-08 13:14 19.24948 -68.14506 37084 ft 469 kts 126°
2026-05-08 13:15 19.20834 -68.09186 37083 ft 469 kts 126°
2026-05-08 13:15 19.16699 -68.03845 37090 ft 469 kts 126°
2026-05-08 13:16 19.12550 -67.98505 37083 ft 469 kts 126°
2026-05-08 13:16 19.08421 -67.93205 37081 ft 469 kts 126°
2026-05-08 13:17 19.04267 -67.87870 37082 ft 469 kts 126°
2026-05-08 13:17 19.00148 -67.82565 37081 ft 469 kts 126°
2026-05-08 13:18 18.95988 -67.77231 37079 ft 469 kts 126°
2026-05-08 13:18 18.91852 -67.71932 37082 ft 469 kts 126°
2026-05-08 13:19 18.87694 -67.66605 37072 ft 469 kts 126°
2026-05-08 13:19 18.83563 -67.61324 37078 ft 469 kts 126°
2026-05-08 13:20 18.79407 -67.56012 37084 ft 469 kts 126°
2026-05-08 13:20 18.75244 -67.50700 37085 ft 469 kts 126°
2026-05-08 13:21 18.71091 -67.45393 37075 ft 469 kts 125°
2026-05-08 13:21 18.66938 -67.40089 37077 ft 469 kts 125°
2026-05-08 13:22 18.62800 -67.34815 37087 ft 469 kts 125°
2026-05-08 13:22 18.58639 -67.29510 37087 ft 469 kts 125°
2026-05-08 13:23 18.54468 -67.24204 37093 ft 469 kts 126°
2026-05-08 13:23 18.50330 -67.18949 37101 ft 469 kts 125°
2026-05-08 13:24 18.46888 -67.13214 37104 ft 461 kts 113°
2026-05-08 13:24 18.43873 -67.07252 37096 ft 461 kts 113°
2026-05-08 13:25 18.40848 -67.01296 37109 ft 461 kts 113°
2026-05-08 13:25 18.37816 -66.95342 37093 ft 461 kts 114°
2026-05-08 13:26 18.34791 -66.89428 37087 ft 461 kts 114°
2026-05-08 13:26 18.31754 -66.83473 37089 ft 461 kts 113°
2026-05-08 13:27 18.28716 -66.77521 37085 ft 461 kts 113°
2026-05-08 13:27 18.25669 -66.71568 37079 ft 461 kts 113°
2026-05-08 13:28 18.22620 -66.65609 37090 ft 462 kts 113°
2026-05-08 13:28 18.19578 -66.59657 37090 ft 462 kts 113°
2026-05-08 13:29 18.16550 -66.53751 37100 ft 461 kts 113°
2026-05-08 13:29 18.13502 -66.47814 37094 ft 461 kts 113°
2026-05-08 13:30 18.10455 -66.41882 37089 ft 461 kts 113°
2026-05-08 13:30 18.07401 -66.35938 37092 ft 461 kts 113°
2026-05-08 13:31 18.04361 -66.30027 37093 ft 461 kts 113°
2026-05-08 13:31 18.01300 -66.24088 37095 ft 461 kts 113°
2026-05-08 13:32 17.98265 -66.18202 37093 ft 461 kts 113°
2026-05-08 13:32 17.95209 -66.12267 37089 ft 461 kts 113°
2026-05-08 13:33 17.92174 -66.06375 37082 ft 461 kts 113°
2026-05-08 13:33 17.89109 -66.00452 37081 ft 461 kts 113°
2026-05-08 13:34 17.86041 -65.94534 37079 ft 460 kts 113°
2026-05-08 13:34 17.82993 -65.88659 37089 ft 460 kts 113°
2026-05-08 13:35 17.79923 -65.82747 37083 ft 460 kts 113°
2026-05-08 13:35 17.76877 -65.76871 37080 ft 460 kts 113°
2026-05-08 13:36 17.73816 -65.70974 37076 ft 460 kts 113°
2026-05-08 13:36 17.70757 -65.65076 37075 ft 460 kts 113°
2026-05-08 13:37 17.67690 -65.59176 37086 ft 460 kts 113°
2026-05-08 13:37 17.64639 -65.53326 37083 ft 459 kts 113°
2026-05-08 13:38 17.61572 -65.47434 37078 ft 459 kts 113°
2026-05-08 13:38 17.58520 -65.41591 37077 ft 459 kts 113°
2026-05-08 13:39 17.55450 -65.35711 37073 ft 459 kts 113°
2026-05-08 13:39 17.52396 -65.29869 37072 ft 459 kts 113°
2026-05-08 13:40 17.49321 -65.23991 37082 ft 459 kts 113°
2026-05-08 13:40 17.46261 -65.18153 37080 ft 458 kts 113°
2026-05-08 13:41 17.43187 -65.12283 37078 ft 458 kts 113°
2026-05-08 13:41 17.40131 -65.06457 37077 ft 458 kts 113°
2026-05-08 13:42 17.37055 -65.00603 37075 ft 458 kts 113°
2026-05-08 13:42 17.33975 -64.94751 37081 ft 458 kts 113°
2026-05-08 13:43 17.30920 -64.88935 37082 ft 457 kts 113°
2026-05-08 13:43 17.27848 -64.83093 37079 ft 457 kts 113°
2026-05-08 13:44 17.24794 -64.77301 37075 ft 457 kts 113°
2026-05-08 13:44 17.21716 -64.71461 37070 ft 457 kts 113°
2026-05-08 13:45 17.18637 -64.65633 37070 ft 457 kts 113°
2026-05-08 13:45 17.15584 -64.59849 37069 ft 457 kts 113°
2026-05-08 13:46 17.12509 -64.54022 37068 ft 457 kts 113°
2026-05-08 13:46 17.09432 -64.48203 37069 ft 457 kts 114°
2026-05-08 13:47 17.06368 -64.42415 37069 ft 457 kts 114°
2026-05-08 13:47 17.03286 -64.36591 37065 ft 457 kts 114°
2026-05-08 13:48 17.00193 -64.30766 37075 ft 457 kts 114°
2026-05-08 13:48 16.97116 -64.24976 37071 ft 458 kts 114°
2026-05-08 13:49 16.94019 -64.19154 37070 ft 458 kts 114°
2026-05-08 13:49 16.90922 -64.13338 37068 ft 458 kts 114°
2026-05-08 13:50 16.87828 -64.07511 37063 ft 458 kts 114°
2026-05-08 13:50 16.84754 -64.01725 37077 ft 458 kts 114°
2026-05-08 13:51 16.81645 -63.95910 37073 ft 458 kts 114°
2026-05-08 13:51 16.78535 -63.90090 37071 ft 458 kts 114°
2026-05-08 13:52 16.75433 -63.84278 37069 ft 458 kts 114°
2026-05-08 13:52 16.72325 -63.78466 37068 ft 458 kts 114°
2026-05-08 13:53 16.69235 -63.72686 37080 ft 458 kts 114°
2026-05-08 13:53 16.66127 -63.66882 37079 ft 458 kts 114°
2026-05-08 13:54 16.63519 -63.62018 37072 ft 458 kts 114°
2026-05-08 13:54 16.60425 -63.56239 37071 ft 458 kts 114°
2026-05-08 13:55 16.57298 -63.50431 37066 ft 458 kts 114°
2026-05-08 13:56 16.52638 -63.41763 37079 ft 458 kts 114°
2026-05-08 13:56 16.49516 -63.35952 37068 ft 459 kts 114°
2026-05-08 13:57 16.46409 -63.30180 37064 ft 459 kts 114°
2026-05-08 13:57 16.43274 -63.24369 37067 ft 459 kts 114°
2026-05-08 13:58 16.40139 -63.18563 37062 ft 459 kts 114°
2026-05-08 13:58 16.37010 -63.12754 37076 ft 459 kts 114°
2026-05-08 13:59 16.33901 -63.06994 37067 ft 460 kts 114°
2026-05-08 13:59 16.30740 -63.01191 37066 ft 461 kts 117°
2026-05-08 14:00 16.26663 -62.95944 37063 ft 468 kts 127°
2026-05-08 14:00 16.22318 -62.90878 37062 ft 468 kts 127°
2026-05-08 14:01 16.18005 -62.85837 37066 ft 468 kts 127°
2026-05-08 14:01 16.13672 -62.80767 37069 ft 468 kts 127°
2026-05-08 14:02 16.09359 -62.75719 37069 ft 468 kts 127°
2026-05-08 14:02 16.05025 -62.70645 37069 ft 468 kts 127°
2026-05-08 14:03 16.00689 -62.65588 37063 ft 469 kts 127°
2026-05-08 14:03 15.96341 -62.60526 37062 ft 469 kts 127°
2026-05-08 14:04 15.92022 -62.55496 37060 ft 469 kts 127°
2026-05-08 14:04 15.87676 -62.50434 37071 ft 469 kts 128°
2026-05-08 14:05 15.83327 -62.45370 37062 ft 469 kts 128°
2026-05-08 14:05 15.79004 -62.40343 37062 ft 469 kts 128°
2026-05-08 14:06 15.74652 -62.35287 37057 ft 468 kts 128°
2026-05-08 14:06 15.70300 -62.30237 37057 ft 469 kts 128°
2026-05-08 14:07 15.65987 -62.25229 37062 ft 468 kts 128°
2026-05-08 14:07 15.61641 -62.20183 37067 ft 468 kts 129°
2026-05-08 14:08 15.57286 -62.15134 37064 ft 468 kts 129°
2026-05-08 14:08 15.52926 -62.10091 36921 ft 469 kts 129°
2026-05-08 14:08 15.50773 -62.07604 36679 ft 469 kts 129°
2026-05-08 14:09 15.48591 -62.05082 36420 ft 469 kts 129°
2026-05-08 14:09 15.46401 -62.02551 36175 ft 469 kts 129°
2026-05-08 14:09 15.44213 -62.00022 35934 ft 471 kts 129°
2026-05-08 14:09 15.42048 -61.97521 35457 ft 472 kts 129°
2026-05-08 14:10 15.39833 -61.94959 34597 ft 479 kts 129°
2026-05-08 14:10 15.37594 -61.92369 33662 ft 486 kts 129°
2026-05-08 14:10 15.35315 -61.89733 32613 ft 492 kts 130°
2026-05-08 14:10 15.33016 -61.87077 31605 ft 497 kts 130°
2026-05-08 14:11 15.30726 -61.84438 30776 ft 498 kts 130°
2026-05-08 14:11 15.28419 -61.81784 29696 ft 495 kts 130°
2026-05-08 14:11 15.26109 -61.79126 28249 ft 496 kts 130°
2026-05-08 14:11 15.23791 -61.76459 26762 ft 495 kts 129°
2026-05-08 14:12 15.21499 -61.73824 25478 ft 489 kts 129°
2026-05-08 14:12 15.19235 -61.71222 24313 ft 481 kts 128°
2026-05-08 14:12 15.17008 -61.68662 23112 ft 473 kts 128°
2026-05-08 14:12 15.14821 -61.66161 21867 ft 466 kts 129°
2026-05-08 14:13 15.12414 -61.63988 20696 ft 463 kts 141°
2026-05-08 14:13 15.09699 -61.62218 19544 ft 457 kts 146°
2026-05-08 14:13 15.06997 -61.60517 18431 ft 450 kts 146°
2026-05-08 14:13 15.04340 -61.58851 17220 ft 442 kts 147°
2026-05-08 14:14 15.01730 -61.57214 16092 ft 433 kts 147°
2026-05-08 14:14 14.99175 -61.55609 15029 ft 426 kts 147°
2026-05-08 14:14 14.96699 -61.54049 14069 ft 422 kts 148°
2026-05-08 14:14 14.94230 -61.52487 13605 ft 411 kts 148°
2026-05-08 14:15 14.91810 -61.50956 13070 ft 405 kts 148°
2026-05-08 14:15 14.89421 -61.49451 12471 ft 398 kts 147°
2026-05-08 14:15 14.87064 -61.47969 11882 ft 394 kts 147°
2026-05-08 14:15 14.84732 -61.46504 11306 ft 389 kts 148°
2026-05-08 14:16 14.82437 -61.45065 10731 ft 384 kts 147°
2026-05-08 14:16 14.80167 -61.43642 10175 ft 379 kts 147°
2026-05-08 14:16 14.77920 -61.42237 9593 ft 374 kts 146°
2026-05-08 14:16 14.75708 -61.40850 8989 ft 369 kts 146°
2026-05-08 14:17 14.73522 -61.39475 8401 ft 366 kts 147°
2026-05-08 14:17 14.71383 -61.38131 7825 ft 363 kts 147°
2026-05-08 14:17 14.69230 -61.36782 7253 ft 359 kts 147°
2026-05-08 14:17 14.67104 -61.35451 6685 ft 352 kts 147°
2026-05-08 14:18 14.65055 -61.34170 6103 ft 335 kts 146°
2026-05-08 14:18 14.63100 -61.32948 5506 ft 321 kts 147°
2026-05-08 14:18 14.61220 -61.31771 4931 ft 311 kts 146°
2026-05-08 14:18 14.59394 -61.30627 4339 ft 302 kts 146°
2026-05-08 14:19 14.57637 -61.29523 3764 ft 295 kts 146°
2026-05-08 14:19 14.56027 -61.28332 3525 ft 273 kts 130°
2026-05-08 14:19 14.55132 -61.26717 3406 ft 251 kts 103°
2026-05-08 14:19 14.55050 -61.24994 3280 ft 232 kts 82°
2026-05-08 14:20 14.55259 -61.23388 3076 ft 219 kts 82°
2026-05-08 14:20 14.55455 -61.21885 3000 ft 206 kts 82°
2026-05-08 14:20 14.55656 -61.20449 3008 ft 203 kts 81°
2026-05-08 14:20 14.55887 -61.19045 3006 ft 193 kts 79°
2026-05-08 14:21 14.56118 -61.17699 2908 ft 188 kts 79°
2026-05-08 14:21 14.56347 -61.16371 2702 ft 186 kts 79°
2026-05-08 14:21 14.56572 -61.15065 2471 ft 184 kts 80°
2026-05-08 14:21 14.56792 -61.13784 2236 ft 182 kts 79°
2026-05-08 14:22 14.57009 -61.12523 2009 ft 173 kts 80°
2026-05-08 14:22 14.57214 -61.11332 1787 ft 163 kts 79°
2026-05-08 14:22 14.57407 -61.10214 1592 ft 154 kts 80°
2026-05-08 14:22 14.57589 -61.09151 1383 ft 145 kts 80°
2026-05-08 14:23 14.57754 -61.08192 1220 ft 132 kts 81°
2026-05-08 14:23 14.57910 -61.07282 1051 ft 126 kts 81°
2026-05-08 14:23 14.58065 -61.06383 897 ft 127 kts 79°
2026-05-08 14:23 14.58218 -61.05492 750 ft 125 kts 78°
2026-05-08 14:24 14.58370 -61.04606 595 ft 126 kts 77°
2026-05-08 14:24 14.58523 -61.03714 426 ft 126 kts 78°
2026-05-08 14:24 14.58673 -61.02847 277 ft 124 kts 77°
2026-05-08 14:24 14.58825 -61.01961 79 ft 126 kts 78°
2026-05-08 14:25 14.58968 -61.01122 21 ft 100 kts 80°
2026-05-08 14:25 14.59058 -61.00587 16 ft 52 kts 79°
2026-05-08 14:25 14.59122 -61.00222 18 ft 48 kts 80°
2026-05-08 14:25 14.59158 -61.00034 17 ft 10 kts 62°
2026-05-08 14:26 14.59228 -61.00022 19 ft 11 kts 352°
2026-05-08 14:26 14.59307 -61.00035 20 ft 12 kts 350°
2026-05-08 14:26 14.59373 -61.00071 21 ft 12 kts 299°
2026-05-08 14:26 14.59405 -61.00144 20 ft 7 kts 316°
2026-05-08 14:27 14.59433 -61.00131 20 ft 5 kts 36°
2026-05-08 14:27 14.59471 -61.00104 20 ft 8 kts 34°
2026-05-08 14:27 14.59486 -61.00093 20 ft 2 kts 34°
2026-05-08 14:27 14.59489 -61.00091 20 ft 0 kts 34°